Weather History for MMIO - November, 2012

Change the Weather History Date:

Monday, November 12, 2012

  Actual Average Record
Temperature  
Mean Temperature 53 °F -  
Max Temperature 61 °F 70 °F 86 °F (2005)
Min Temperature 45 °F 51 °F 39 °F (2014)
Degree Days  
Heating Degree Days 12    
Growing Degree Days 3 (Base 50)    
Moisture  
Dew Point 38 °F    
Average Humidity 51    
Maximum Humidity 82    
Minimum Humidity 26    
Precipitation  
Precipitation 0.00 in - - ()
Sea Level Pressure  
Sea Level Pressure 30.29 in    
Wind  
Wind Speed 10 mph ()    
Max Wind Speed 21 mph    
Max Gust Speed -    
Visibility 8.8 miles    
Events      
Averages and records for this station are not official NWS values.
T = Trace of Precipitation, MM = Missing Value Source: Averaged Metar Reports

Daily Weather History Graph

Daily Weather History Graph

Search for Another Location

Airport or City:

Trip Planner

Search our weather history database for the weather conditions in past years. The results will help you decide how hot, cold, wet, or windy it might be!

Date:

Astronomy

Nov. 12, 2012 Rise Set
Actual Time 6:59 AM CST 5:56 PM CST
Civil Twilight 6:35 AM CST 6:20 PM CST
Nautical Twilight 6:07 AM CST 6:47 PM CST
Astronomical Twilight 5:40 AM CST 7:15 PM CST
Moon 5:32 AM CST (11/12) 5:00 PM CST (11/12)
Length of Visible Light 11h 44m
Length of Day
10h 56m
Waning Crescent, 2% of the Moon is Illuminated
Nov 12
Waning Crescent
Nov 13
New
Nov 20
First Quarter
Nov 28
Full
Dec 6
Last Quarter

Hourly Weather History & Observations

Time (CST) Temp. Dew Point Humidity Pressure Visibility Wind Dir Wind Speed Gust Speed Precip Events Conditions
12:40 AM 59.0 °F 42.8 °F 55% 30.23 in 10.0 mi North 9.2 mph - N/A   Clear
1:40 AM 59.0 °F 42.8 °F 55% 30.25 in 8.0 mi North 9.2 mph - N/A   Mostly Cloudy
2:30 AM 52 °F 48 °F 82% 30.04 in 3 mi ENE 8.9 mph - -   Haze
2:40 AM 59.0 °F 42.8 °F 55% 30.25 in 8.0 mi North 9.2 mph - N/A   Mostly Cloudy
3:40 AM 57.2 °F 42.8 °F 59% 30.25 in 8.0 mi North 9.2 mph - N/A   Mostly Cloudy
4:40 AM 57.2 °F 46.4 °F 67% 30.25 in 8.0 mi North 9.2 mph - N/A   Mostly Cloudy
5:30 AM 49 °F 41 °F 65% 30.13 in 3 mi East 11.2 mph - -   Haze
6:00 AM 55.4 °F 44.6 °F 67% 30.28 in 8.0 mi NNW 6.9 mph - N/A   Mostly Cloudy
6:40 AM 55.4 °F 46.4 °F 72% 30.31 in 8.0 mi NNW 9.2 mph - N/A   Overcast
7:40 AM 55.4 °F 41.0 °F 58% 30.32 in 8.0 mi NNW 6.9 mph - N/A   Mostly Cloudy
8:35 AM 51 °F 36 °F 44% 30.25 in 10 mi East 11.2 mph - -   Haze
8:40 AM 55.4 °F 41.0 °F 58% 30.39 in 8.0 mi NNW 9.2 mph - N/A   Mostly Cloudy
9:40 AM 59.0 °F 39.2 °F 48% 30.40 in 8.0 mi North 9.2 mph - N/A   Mostly Cloudy
10:40 AM 62.6 °F 41.0 °F 45% 30.40 in 8.0 mi NNE 9.2 mph - N/A   Scattered Clouds
11:35 AM 58 °F 37 °F 34% 30.26 in 10 mi ESE 11.2 mph - -   Haze
11:40 AM 64.4 °F 41.0 °F 42% 30.37 in 10.0 mi North 9.2 mph - N/A   Clear
12:40 PM 62.6 °F 41.0 °F 45% 30.32 in 10.0 mi North 18.4 mph - N/A   Clear
1:40 PM 62.6 °F 41.0 °F 45% 30.30 in 10.0 mi NNE 18.4 mph - N/A   Clear
2:35 PM 59 °F 34 °F 27% 30.18 in 10 mi East 11.2 mph - -   Haze
2:40 PM 60.8 °F 37.4 °F 42% 30.30 in 10.0 mi NNE 20.7 mph - N/A   Clear
3:40 PM 57.2 °F 37.4 °F 48% 30.30 in 10.0 mi North 17.3 mph - N/A   Scattered Clouds
4:40 PM 55.4 °F 39.2 °F 54% 30.30 in 10.0 mi NNE 17.3 mph - N/A   Mostly Cloudy
5:35 PM 49 °F 25 °F 26% 30.17 in 7 mi East 11.2 mph - -   Haze
5:40 PM 53.6 °F 35.6 °F 51% 30.34 in 10.0 mi NE 17.3 mph - N/A   Mostly Cloudy
6:40 PM 51.8 °F 35.6 °F 54% 30.34 in 10.0 mi NE 11.5 mph - N/A   Mostly Cloudy
7:40 PM 50.0 °F 32.0 °F 50% 30.37 in 10.0 mi North 13.8 mph - N/A   Mostly Cloudy
8:40 PM 50.0 °F 32.0 °F 50% 30.37 in 10.0 mi North 11.5 mph - N/A   Scattered Clouds
9:40 PM 50.0 °F 32.0 °F 50% 30.37 in 10.0 mi North 11.5 mph - N/A   Scattered Clouds
10:40 PM 48.2 °F 28.4 °F 46% 30.37 in 10.0 mi NNW 9.2 mph - N/A   Clear
11:40 PM 48.2 °F 28.4 °F 46% 30.37 in 10.0 mi North 9.2 mph - N/A   Clear